Precipitable_Water
1.62 1.59 1.60 1.55 1.56 1.57 1.63 1.65 1.69 1.68 1.67 1.62 1.61 1.60 1.63 1.65 1.61 1.57 1.55 1.53 1.53 1.54 1.61 1.65 1.69 1.73 1.73 1.72 1.74 1.77 1.83 1.87 1.88 1.88 1.86 1.84 1.86 1.91 2.02 2.08 2.04 2.00 1.89 1.81 1.78 1.80 1.80 1.72 1.63 1.59 1.52 1.44 1.40 1.38 1.39 1.39 1.40 1.43 1.43 1.42 1.41 1.39 1.38 1.36 1.34 1.36 1.41 1.44 1.49 1.56 1.62 1.64 1.65 1.64 1.63 1.63 1.64 1.64 1.66 1.69 1.70 1.74 1.80 1.83 1.85
1.67 1.63 1.58 1.54 1.54 1.55 1.59 1.65 1.66 1.69 1.70 1.65 1.66 1.65 1.65 1.66 1.65 1.60 1.57 1.56 1.53 1.53 1.55 1.58 1.64 1.67 1.71 1.72 1.73 1.75 1.78 1.85 1.86 1.87 1.87 1.84 1.86 1.86 1.91 2.03 2.03 1.97 1.89 1.78 1.70 1.74 1.78 1.75 1.70 1.63 1.60 1.52 1.44 1.39 1.39 1.44 1.45 1.42 1.44 1.46 1.46 1.44 1.43 1.41 1.40 1.40 1.41 1.43 1.45 1.49 1.56 1.63 1.65 1.67 1.67 1.70 1.71 1.72 1.74 1.77 1.78 1.79 1.82 1.85 1.86
1.70 1.65 1.59 1.56 1.56 1.59 1.63 1.71 1.68 1.70 1.72 1.68 1.72 1.71 1.70 1.66 1.65 1.61 1.59 1.58 1.54 1.53 1.49 1.49 1.54 1.61 1.65 1.66 1.68 1.73 1.76 1.82 1.88 1.89 1.88 1.88 1.89 1.91 1.87 1.98 2.01 1.99 1.92 1.81 1.73 1.73 1.73 1.69 1.69 1.72 1.64 1.60 1.53 1.45 1.41 1.42 1.48 1.49 1.46 1.46 1.48 1.49 1.47 1.45 1.44 1.43 1.44 1.46 1.49 1.51 1.55 1.59 1.63 1.69 1.71 1.74 1.80 1.82 1.85 1.86 1.86 1.85 1.85 1.85 1.85
1.69 1.65 1.58 1.56 1.57 1.62 1.67 1.69 1.66 1.68 1.71 1.70 1.69 1.70 1.68 1.65 1.64 1.62 1.62 1.62 1.56 1.53 1.50 1.45 1.43 1.46 1.50 1.52 1.57 1.57 1.62 1.69 1.74 1.80 1.82 1.84 1.94 1.96 1.92 1.93 1.98 1.99 1.93 1.83 1.73 1.76 1.77 1.72 1.70 1.72 1.71 1.64 1.60 1.56 1.48 1.44 1.48 1.53 1.53 1.49 1.49 1.50 1.49 1.49 1.47 1.46 1.46 1.46 1.46 1.49 1.53 1.56 1.60 1.66 1.73 1.76 1.79 1.81 1.85 1.86 1.84 1.84 1.83 1.82 1.81
1.66 1.63 1.59 1.56 1.59 1.62 1.63 1.63 1.64 1.68 1.71 1.70 1.68 1.66 1.64 1.59 1.54 1.56 1.54 1.53 1.46 1.42 1.40 1.39 1.36 1.33 1.33 1.33 1.36 1.35 1.43 1.50 1.51 1.56 1.66 1.74 1.84 1.97 2.05 2.05 2.06 2.01 1.96 1.90 1.84 1.79 1.78 1.74 1.75 1.73 1.73 1.72 1.66 1.59 1.55 1.50 1.49 1.52 1.57 1.56 1.51 1.50 1.51 1.51 1.50 1.49 1.49 1.48 1.45 1.45 1.48 1.52 1.58 1.64 1.70 1.75 1.77 1.79 1.80 1.83 1.82 1.79 1.78 1.77 1.76
1.63 1.60 1.59 1.57 1.59 1.59 1.57 1.58 1.65 1.70 1.69 1.62 1.54 1.51 1.46 1.43 1.40 1.40 1.37 1.31 1.20 1.14 1.12 1.13 1.21 1.23 1.20 1.21 1.21 1.20 1.24 1.30 1.36 1.39 1.49 1.59 1.69 1.79 1.88 1.97 2.01 2.01 2.05 1.97 1.91 1.90 1.81 1.79 1.79 1.77 1.76 1.74 1.69 1.61 1.57 1.54 1.50 1.49 1.53 1.57 1.56 1.51 1.52 1.53 1.51 1.50 1.50 1.50 1.48 1.46 1.47 1.50 1.55 1.60 1.64 1.68 1.71 1.72 1.72 1.74 1.73 1.71 1.69 1.69 1.69
1.65 1.60 1.58 1.59 1.57 1.53 1.50 1.54 1.60 1.59 1.53 1.51 1.48 1.44 1.38 1.32 1.30 1.20 1.14 1.07 1.01 0.98 0.98 0.99 1.01 1.03 1.07 1.12 1.12 1.18 1.23 1.23 1.25 1.25 1.28 1.43 1.61 1.72 1.83 1.85 1.92 1.91 1.96 2.02 1.95 1.84 1.88 1.85 1.82 1.81 1.80 1.78 1.73 1.68 1.59 1.54 1.53 1.53 1.51 1.51 1.53 1.53 1.49 1.52 1.53 1.52 1.50 1.50 1.50 1.49 1.50 1.50 1.52 1.55 1.58 1.61 1.64 1.65 1.66 1.66 1.66 1.64 1.62 1.62 1.63
1.66 1.66 1.63 1.64 1.56 1.48 1.47 1.50 1.49 1.47 1.47 1.46 1.41 1.29 1.23 1.18 1.17 1.10 0.97 0.95 0.96 0.98 1.02 0.98 0.98 0.96 0.97 0.97 1.00 1.05 1.05 1.08 1.09 1.10 1.17 1.28 1.35 1.49 1.67 1.79 1.86 1.94 1.92 1.89 1.83 1.74 1.79 1.83 1.83 1.81 1.78 1.77 1.78 1.72 1.64 1.58 1.55 1.54 1.54 1.52 1.49 1.50 1.49 1.46 1.50 1.51 1.51 1.49 1.49 1.50 1.52 1.54 1.55 1.54 1.55 1.55 1.57 1.57 1.58 1.58 1.59 1.60 1.60 1.60 1.62
1.74 1.76 1.75 1.72 1.57 1.45 1.45 1.47 1.49 1.46 1.39 1.30 1.20 1.15 1.10 1.05 1.03 1.03 0.97 0.93 0.96 0.92 0.91 0.91 0.91 0.92 0.92 0.90 0.90 0.91 0.89 0.92 0.95 0.96 1.01 1.07 1.18 1.28 1.38 1.53 1.72 1.84 1.92 1.96 1.88 1.78 1.76 1.78 1.81 1.84 1.79 1.74 1.71 1.76 1.71 1.62 1.55 1.54 1.55 1.54 1.52 1.45 1.44 1.43 1.44 1.49 1.51 1.49 1.48 1.49 1.51 1.53 1.56 1.56 1.55 1.54 1.54 1.53 1.54 1.55 1.56 1.59 1.60 1.60 1.61
1.78 1.87 1.72 1.61 1.47 1.42 1.45 1.45 1.43 1.34 1.24 1.18 1.14 1.15 1.08 0.97 0.92 1.02 1.05 1.01 0.93 0.87 0.83 0.88 0.89 0.88 0.88 0.88 0.89 0.90 0.90 0.90 0.92 0.93 0.95 0.99 1.11 1.19 1.30 1.42 1.55 1.67 1.80 1.83 1.81 1.74 1.63 1.69 1.78 1.80 1.88 1.82 1.72 1.71 1.75 1.68 1.57 1.55 1.58 1.57 1.56 1.53 1.45 1.40 1.39 1.39 1.45 1.48 1.48 1.48 1.50 1.52 1.54 1.55 1.55 1.54 1.52 1.51 1.53 1.56 1.57 1.58 1.59 1.60 1.59
1.83 1.77 1.53 1.43 1.41 1.45 1.44 1.38 1.31 1.25 1.22 1.23 1.21 1.15 1.03 1.10 1.19 1.19 1.19 1.09 0.95 0.91 0.90 0.91 0.91 0.91 0.90 0.94 1.00 1.00 1.01 1.03 1.03 0.98 1.00 1.06 1.13 1.26 1.38 1.41 1.48 1.57 1.59 1.68 1.72 1.72 1.75 1.79 1.80 1.85 1.86 1.86 1.85 1.75 1.76 1.72 1.66 1.56 1.55 1.58 1.59 1.58 1.56 1.47 1.37 1.35 1.35 1.41 1.46 1.46 1.48 1.49 1.51 1.53 1.53 1.53 1.52 1.51 1.52 1.55 1.56 1.56 1.57 1.58 1.58
1.68 1.52 1.44 1.42 1.41 1.39 1.33 1.24 1.25 1.28 1.24 1.20 1.22 1.22 1.21 1.32 1.34 1.32 1.22 1.15 1.06 1.04 1.08 1.07 1.04 1.01 0.99 1.02 1.05 1.03 1.03 1.06 1.06 1.06 1.08 1.13 1.19 1.26 1.31 1.42 1.45 1.51 1.65 1.73 1.73 1.72 1.75 1.78 1.82 1.90 1.96 1.94 1.95 1.89 1.80 1.76 1.75 1.63 1.59 1.58 1.61 1.63 1.64 1.61 1.50 1.38 1.34 1.34 1.37 1.42 1.45 1.47 1.49 1.51 1.52 1.52 1.51 1.50 1.51 1.53 1.53 1.52 1.53 1.55 1.56
1.47 1.43 1.38 1.35 1.29 1.20 1.10 1.10 1.14 1.16 1.15 1.16 1.24 1.23 1.27 1.24 1.19 1.20 1.13 1.09 1.10 1.18 1.19 1.19 1.03 0.92 0.96 0.93 0.92 0.99 1.00 0.97 1.03 1.10 1.17 1.21 1.23 1.18 1.29 1.37 1.47 1.53 1.61 1.76 1.80 1.83 1.88 1.92 1.93 1.96 1.96 2.00 2.09 2.08 2.04 1.90 1.80 1.78 1.71 1.65 1.62 1.62 1.66 1.67 1.65 1.54 1.40 1.36 1.35 1.36 1.39 1.43 1.45 1.47 1.49 1.51 1.50 1.49 1.49 1.50 1.50 1.50 1.49 1.49 1.50
1.38 1.36 1.32 1.25 1.12 1.09 1.09 1.09 1.12 1.12 1.23 1.29 1.26 1.44 1.35 1.22 1.15 1.06 1.13 1.09 1.09 1.20 1.22 1.17 1.00 0.90 0.85 0.87 0.87 0.95 0.98 1.01 1.01 1.04 1.07 1.12 1.15 1.22 1.27 1.30 1.31 1.45 1.62 1.70 1.72 1.79 1.87 1.94 1.96 1.96 1.99 2.04 2.12 2.00 1.90 1.88 1.91 1.88 1.93 1.80 1.70 1.67 1.65 1.70 1.70 1.67 1.58 1.44 1.38 1.36 1.35 1.36 1.40 1.43 1.45 1.46 1.47 1.47 1.47 1.48 1.48 1.48 1.47 1.46 1.45
1.30 1.25 1.14 1.11 1.11 1.09 1.06 1.11 1.17 1.23 1.17 1.10 1.16 1.23 1.14 1.13 1.07 1.00 1.05 1.25 1.20 1.26 1.23 1.19 0.96 0.99 0.97 0.92 0.78 0.70 0.85 1.01 1.08 1.04 1.02 1.07 1.13 1.09 1.15 1.22 1.33 1.43 1.61 1.73 1.85 1.80 1.77 1.81 1.89 1.95 1.98 1.99 2.04 2.05 2.05 2.01 1.94 1.85 1.81 1.88 1.86 1.79 1.70 1.68 1.70 1.70 1.68 1.60 1.48 1.41 1.38 1.35 1.35 1.37 1.40 1.42 1.43 1.43 1.43 1.44 1.46 1.44 1.44 1.45 1.44
1.15 1.14 1.15 1.15 1.13 1.09 1.06 1.07 1.10 1.11 1.01 0.92 0.94 0.99 1.06 1.10 1.10 1.14 1.22 1.06 1.14 1.13 1.24 1.19 1.12 0.95 0.74 0.83 0.85 0.84 0.71 0.82 0.86 1.02 1.14 1.14 1.14 1.11 1.13 1.14 1.21 1.31 1.38 1.39 1.60 1.77 1.82 1.73 1.73 1.81 1.79 1.76 1.87 1.97 2.01 2.03 1.99 1.96 1.87 1.81 1.89 1.91 1.85 1.76 1.72 1.74 1.73 1.72 1.64 1.53 1.44 1.41 1.37 1.34 1.35 1.38 1.40 1.40 1.40 1.40 1.41 1.42 1.40 1.41 1.42
1.21 1.23 1.24 1.19 1.17 1.14 1.10 1.10 1.09 1.10 1.06 1.02 0.98 1.05 1.11 1.16 1.11 1.14 1.21 1.20 1.11 1.07 1.08 1.17 1.17 1.15 0.91 0.80 0.84 0.86 0.90 0.93 0.90 0.92 1.12 1.04 1.13 1.14 1.12 1.13 1.13 1.16 1.22 1.29 1.41 1.55 1.65 1.69 1.79 1.90 1.84 1.80 1.90 1.98 2.02 1.94 1.97 1.97 1.96 1.89 1.77 1.88 1.96 1.88 1.81 1.80 1.79 1.78 1.78 1.73 1.58 1.46 1.41 1.41 1.37 1.35 1.35 1.37 1.37 1.37 1.37 1.38 1.38 1.37 1.39
1.21 1.19 1.15 1.07 1.06 1.07 1.07 1.08 1.10 1.11 1.09 1.03 1.05 1.06 1.04 1.06 1.12 1.17 1.19 1.21 1.09 0.95 0.89 1.06 1.18 1.16 1.15 1.09 1.01 0.86 0.88 1.03 0.92 0.69 1.00 1.15 1.14 1.13 1.09 1.07 1.09 1.09 1.11 1.14 1.17 1.20 1.30 1.35 1.49 1.56 1.61 1.64 1.74 1.89 1.96 1.95 1.94 1.92 1.93 1.95 1.97 1.99 1.85 1.82 1.87 1.85 1.80 1.81 1.79 1.82 1.78 1.64 1.48 1.42 1.44 1.43 1.37 1.35 1.35 1.35 1.36 1.36 1.36 1.34 1.34
1.12 1.10 1.03 1.02 1.07 1.11 1.10 1.08 1.06 1.02 1.03 1.01 0.97 0.96 0.98 1.06 1.12 1.14 1.15 1.09 1.03 0.86 0.83 0.85 1.02 1.12 1.16 1.16 1.13 1.13 1.18 0.98 0.77 0.83 0.71 0.97 1.11 1.09 1.08 1.09 1.05 1.03 1.03 1.06 1.06 1.05 1.07 1.14 1.20 1.33 1.44 1.53 1.60 1.73 1.84 1.87 1.94 1.95 1.95 1.97 1.97 1.91 1.83 1.86 1.88 1.83 1.81 1.85 1.87 1.84 1.81 1.81 1.71 1.53 1.45 1.46 1.47 1.42 1.38 1.37 1.36 1.36 1.36 1.35 1.32
0.95 0.95 0.94 1.00 1.02 1.03 1.03 1.01 1.00 1.05 1.03 0.98 0.93 0.96 0.99 1.03 1.07 1.06 1.11 1.09 1.05 0.98 0.88 0.99 0.97 1.03 1.22 1.15 1.11 1.21 1.17 1.12 1.08 0.89 0.83 0.76 0.82 0.97 1.02 1.06 1.10 1.05 1.04 1.03 1.08 1.11 1.11 1.10 1.09 1.16 1.29 1.40 1.52 1.60 1.70 1.79 1.84 1.90 1.94 1.95 1.94 1.92 1.89 1.88 1.86 1.81 1.77 1.77 1.85 1.87 1.86 1.82 1.79 1.73 1.59 1.49 1.50 1.51 1.47 1.43 1.41 1.39 1.38 1.37 1.35
0.87 0.90 0.94 0.94 0.96 0.97 0.98 0.98 0.98 0.99 0.99 0.96 0.97 0.97 0.95 0.95 0.97 0.96 0.94 0.97 1.05 1.07 1.02 1.04 1.10 1.09 1.05 1.08 1.10 1.05 1.04 1.03 1.02 1.01 0.84 0.72 0.68 0.70 0.75 0.94 1.00 1.02 1.04 1.07 1.08 1.11 1.12 1.12 1.14 1.15 1.21 1.32 1.44 1.52 1.60 1.71 1.78 1.82 1.81 1.82 1.88 1.93 1.94 1.96 1.95 1.87 1.81 1.83 1.88 1.90 1.87 1.84 1.81 1.80 1.76 1.63 1.54 1.52 1.53 1.50 1.48 1.45 1.43 1.40 1.39
0.84 0.87 0.89 0.95 0.99 0.96 0.95 0.94 0.93 0.95 0.98 0.97 0.97 0.96 0.96 0.94 0.95 0.96 0.97 0.94 1.02 1.02 1.02 1.07 1.11 1.12 1.07 1.03 0.99 0.95 0.89 0.90 0.93 0.91 0.89 0.85 0.67 0.65 0.71 0.72 0.71 0.85 0.96 0.98 0.99 1.01 1.05 1.12 1.15 1.15 1.16 1.24 1.37 1.47 1.58 1.67 1.69 1.74 1.77 1.76 1.75 1.77 1.81 1.83 1.90 1.92 1.88 1.88 1.87 1.88 1.85 1.79 1.78 1.79 1.81 1.73 1.68 1.62 1.55 1.55 1.53 1.50 1.47 1.44 1.42
0.79 0.77 0.82 0.94 0.94 0.93 0.92 0.88 0.90 0.92 0.95 0.94 0.93 0.96 0.98 0.99 1.00 0.98 0.93 0.90 0.95 0.99 1.01 1.08 1.09 1.05 1.02 1.00 0.97 0.88 0.86 0.81 0.81 0.85 0.85 0.79 0.75 0.74 0.76 0.78 0.74 0.69 0.76 0.86 0.90 0.92 0.96 1.02 1.07 1.15 1.21 1.20 1.26 1.37 1.49 1.61 1.70 1.72 1.74 1.77 1.78 1.80 1.83 1.83 1.85 1.89 1.86 1.88 1.87 1.79 1.80 1.83 1.81 1.75 1.77 1.78 1.74 1.74 1.66 1.58 1.55 1.54 1.51 1.47 1.44
0.79 0.73 0.84 0.93 0.89 0.88 0.84 0.82 0.85 0.87 0.89 0.92 0.95 0.97 1.00 0.99 0.98 0.93 0.90 0.92 0.98 1.00 1.03 1.04 1.06 1.01 1.00 1.00 1.00 1.00 1.00 0.96 0.96 0.93 0.88 0.84 0.82 0.76 0.74 0.76 0.75 0.76 0.81 0.85 0.87 0.88 0.92 0.94 1.03 1.10 1.17 1.24 1.26 1.29 1.36 1.51 1.63 1.70 1.74 1.78 1.82 1.84 1.87 1.89 1.88 1.86 1.83 1.82 1.83 1.81 1.78 1.78 1.80 1.78 1.74 1.79 1.75 1.72 1.76 1.66 1.59 1.56 1.56 1.53 1.49
0.79 0.78 0.86 0.86 0.86 0.83 0.80 0.76 0.80 0.84 0.87 0.91 0.95 0.97 0.96 0.93 0.91 0.91 0.91 0.91 0.93 0.94 0.98 1.02 1.05 0.98 0.91 0.96 0.98 1.00 1.01 1.06 1.01 0.94 0.91 0.86 0.80 0.68 0.70 0.75 0.66 0.66 0.72 0.78 0.75 0.80 0.86 0.89 0.94 1.00 1.07 1.14 1.22 1.30 1.35 1.41 1.56 1.68 1.74 1.78 1.81 1.84 1.85 1.88 1.90 1.87 1.80 1.78 1.81 1.82 1.80 1.77 1.76 1.75 1.73 1.73 1.77 1.73 1.76 1.70 1.62 1.58 1.56 1.56 1.55
0.85 0.81 0.88 0.89 0.87 0.84 0.83 0.82 0.82 0.82 0.86 0.90 0.91 0.94 0.94 0.92 0.90 0.89 0.87 0.91 0.96 0.97 0.98 1.00 1.00 0.97 0.97 0.91 0.96 0.99 1.02 1.05 1.03 0.96 0.86 0.78 0.71 0.67 0.64 0.65 0.65 0.60 0.65 0.63 0.71 0.65 0.73 0.82 0.88 0.91 0.96 1.03 1.10 1.19 1.29 1.40 1.47 1.60 1.71 1.75 1.75 1.77 1.79 1.82 1.86 1.89 1.84 1.76 1.78 1.85 1.86 1.81 1.78 1.75 1.72 1.73 1.72 1.75 1.76 1.74 1.70 1.61 1.57 1.58 1.57
0.84 0.86 0.86 0.83 0.83 0.88 0.91 0.88 0.87 0.85 0.87 0.88 0.92 0.94 0.95 0.96 0.99 1.00 1.00 0.98 0.96 0.97 0.99 1.01 1.01 0.99 0.96 0.96 0.97 1.01 1.01 1.03 1.02 0.94 0.90 0.81 0.76 0.74 0.69 0.57 0.56 0.59 0.56 0.61 0.62 0.64 0.65 0.72 0.79 0.80 0.86 0.92 0.99 1.04 1.09 1.20 1.32 1.45 1.57 1.67 1.69 1.70 1.72 1.75 1.81 1.86 1.86 1.80 1.76 1.80 1.86 1.87 1.84 1.80 1.75 1.73 1.71 1.69 1.71 1.70 1.69 1.70 1.64 1.59 1.57
0.82 0.79 0.78 0.77 0.76 0.87 0.95 0.93 0.92 0.91 0.91 0.93 0.94 0.95 0.98 0.99 1.02 1.05 1.04 1.11 1.03 0.98 0.99 1.00 0.97 0.97 0.95 1.00 1.00 0.99 1.01 1.00 0.98 0.95 0.87 0.82 0.80 0.81 0.77 0.70 0.58 0.49 0.55 0.51 0.54 0.57 0.69 0.64 0.71 0.77 0.78 0.81 0.88 0.96 1.04 1.08 1.13 1.24 1.36 1.48 1.58 1.61 1.65 1.68 1.73 1.80 1.82 1.81 1.80 1.79 1.85 1.90 1.90 1.86 1.80 1.74 1.73 1.71 1.68 1.67 1.69 1.69 1.67 1.65 1.58
0.79 0.80 0.76 0.81 0.84 0.91 0.93 0.93 0.95 0.96 0.97 0.99 1.00 1.00 1.01 1.01 1.02 1.03 1.02 1.11 1.15 1.09 1.08 1.07 1.07 1.03 0.99 0.96 0.97 0.99 1.00 1.01 0.96 0.93 0.86 0.83 0.86 0.84 0.84 0.76 0.73 0.59 0.50 0.46 0.50 0.52 0.56 0.65 0.59 0.66 0.74 0.77 0.80 0.88 0.94 1.01 1.08 1.17 1.27 1.36 1.45 1.55 1.58 1.63 1.67 1.73 1.79 1.79 1.79 1.81 1.83 1.88 1.89 1.87 1.82 1.75 1.71 1.72 1.71 1.67 1.63 1.65 1.66 1.64 1.62
0.87 0.92 0.89 0.84 0.87 0.91 0.91 0.92 0.98 0.99 0.98 0.99 1.01 1.01 1.01 1.00 1.01 1.01 1.09 1.14 1.12 1.14 1.18 1.18 1.14 1.11 1.10 1.08 1.05 1.03 1.05 1.02 0.98 0.95 0.88 0.88 0.88 0.86 0.86 0.86 0.81 0.64 0.60 0.51 0.49 0.60 0.56 0.61 0.64 0.63 0.71 0.73 0.78 0.81 0.88 0.94 1.03 1.11 1.19 1.29 1.39 1.48 1.53 1.54 1.61 1.68 1.72 1.76 1.78 1.78 1.79 1.85 1.86 1.86 1.85 1.83 1.80 1.76 1.74 1.70 1.67 1.65 1.63 1.63 1.62
0.96 0.91 0.91 0.89 0.87 0.88 0.94 0.98 0.98 0.97 0.96 0.94 0.94 0.95 0.98 0.95 0.95 0.96 1.03 1.07 1.11 1.15 1.24 1.22 1.22 1.18 1.11 1.09 1.08 1.05 1.10 1.08 1.07 1.01 0.92 0.89 0.86 0.87 0.85 0.85 0.79 0.75 0.68 0.64 0.52 0.60 0.65 0.55 0.60 0.68 0.69 0.74 0.78 0.79 0.83 0.91 1.00 1.09 1.15 1.24 1.35 1.45 1.50 1.50 1.53 1.62 1.68 1.72 1.77 1.78 1.76 1.74 1.77 1.84 1.87 1.86 1.84 1.81 1.78 1.74 1.71 1.69 1.65 1.62 1.59
1.00 1.01 0.98 0.95 0.94 0.92 0.95 0.96 0.95 0.94 0.94 0.94 0.94 0.91 0.90 0.90 0.91 0.92 0.97 1.02 1.03 1.05 1.08 1.12 1.11 1.11 1.08 1.05 1.18 1.26 1.24 1.17 1.08 1.02 0.92 0.88 0.88 0.85 0.82 0.79 0.78 0.78 0.75 0.68 0.59 0.52 0.66 0.63 0.65 0.68 0.73 0.73 0.78 0.76 0.77 0.84 0.96 1.06 1.12 1.17 1.29 1.41 1.48 1.51 1.49 1.55 1.65 1.68 1.73 1.76 1.74 1.70 1.67 1.75 1.83 1.84 1.83 1.82 1.81 1.78 1.74 1.74 1.72 1.65 1.59
1.03 1.01 0.99 0.98 0.98 0.94 0.92 0.91 0.91 0.90 0.90 0.92 0.95 0.91 0.88 0.87 0.88 0.90 0.94 1.01 1.00 1.01 1.05 1.06 1.12 1.15 1.16 1.19 1.23 1.25 1.22 1.11 1.08 1.04 0.98 0.97 0.97 0.93 0.85 0.78 0.76 0.78 0.75 0.68 0.58 0.54 0.61 0.72 0.71 0.72 0.75 0.78 0.74 0.80 0.77 0.79 0.86 0.98 1.09 1.14 1.23 1.34 1.43 1.49 1.51 1.51 1.60 1.67 1.70 1.73 1.73 1.71 1.67 1.68 1.73 1.79 1.82 1.81 1.78 1.77 1.77 1.77 1.73 1.64 1.58
1.06 1.00 0.98 1.00 0.99 0.95 0.90 0.90 0.89 0.90 0.91 0.94 0.95 0.94 0.91 0.91 0.89 0.93 0.96 1.01 1.03 1.03 1.09 1.13 1.20 1.21 1.20 1.15 1.13 1.16 1.17 1.14 1.21 1.21 1.16 1.11 1.06 0.94 0.82 0.76 0.75 0.75 0.79 0.71 0.66 0.62 0.57 0.67 0.69 0.77 0.77 0.83 0.74 0.82 0.80 0.78 0.81 0.92 1.01 1.08 1.16 1.31 1.41 1.48 1.51 1.50 1.53 1.65 1.71 1.73 1.75 1.74 1.72 1.68 1.68 1.71 1.74 1.73 1.72 1.73 1.74 1.77 1.76 1.66 1.57
1.07 1.04 1.02 1.01 0.96 0.93 0.91 0.90 0.90 0.91 0.92 0.90 0.92 0.93 0.93 0.95 0.96 0.99 1.04 1.04 1.03 1.04 1.09 1.12 1.13 1.15 1.11 1.10 1.10 1.14 1.22 1.27 1.26 1.19 1.13 1.07 1.01 0.87 0.79 0.80 0.78 0.79 0.80 0.82 0.78 0.70 0.67 0.68 0.77 0.75 0.76 0.78 0.78 0.78 0.84 0.85 0.88 0.92 0.98 1.05 1.09 1.19 1.37 1.47 1.50 1.53 1.52 1.58 1.69 1.73 1.76 1.77 1.78 1.75 1.72 1.71 1.70 1.68 1.69 1.70 1.72 1.75 1.77 1.74 1.64
1.04 1.04 1.04 0.99 0.94 0.91 0.87 0.88 0.88 0.88 0.89 0.91 0.94 0.95 0.97 1.01 1.02 1.01 1.00 1.01 1.05 1.07 1.04 1.03 1.04 1.04 1.03 1.02 1.02 1.06 1.07 1.06 1.10 1.09 1.03 0.98 0.93 0.88 0.85 0.90 0.94 0.91 0.90 0.92 0.93 0.86 0.83 0.77 0.80 0.79 0.79 0.78 0.79 0.84 0.87 0.89 0.88 0.90 0.97 1.04 1.10 1.11 1.24 1.39 1.46 1.51 1.54 1.55 1.66 1.72 1.75 1.80 1.82 1.81 1.78 1.74 1.72 1.70 1.69 1.69 1.72 1.73 1.74 1.76 1.70
1.04 1.01 0.99 0.97 0.92 0.89 0.87 0.85 0.84 0.88 0.91 0.93 0.94 0.94 0.97 0.99 0.98 0.97 0.99 1.03 1.05 1.01 0.97 0.98 0.99 1.00 1.01 1.01 1.03 1.06 1.05 1.00 0.99 0.99 0.98 0.98 1.08 1.14 1.11 1.14 1.12 1.08 1.07 1.05 1.01 0.99 0.92 0.84 0.81 0.86 0.87 0.85 0.85 0.85 0.88 0.85 0.85 0.90 0.97 1.02 1.06 1.08 1.15 1.33 1.42 1.48 1.54 1.56 1.62 1.71 1.75 1.80 1.83 1.84 1.81 1.78 1.78 1.78 1.73 1.70 1.73 1.72 1.73 1.76 1.73
1.01 0.98 0.94 0.91 0.90 0.90 0.91 0.89 0.88 0.90 0.92 0.92 0.91 0.91 0.94 0.95 0.97 1.00 1.03 1.03 1.00 0.97 0.96 0.97 0.99 1.02 1.01 0.99 1.00 1.02 1.02 0.98 0.97 1.00 1.06 1.07 1.07 1.02 1.02 1.05 1.07 1.10 1.07 1.01 0.96 0.90 0.89 0.89 0.87 0.83 0.87 0.85 0.83 0.83 0.88 0.91 0.87 0.85 0.89 0.98 1.06 1.10 1.13 1.21 1.35 1.46 1.56 1.58 1.57 1.64 1.71 1.76 1.82 1.86 1.84 1.80 1.80 1.81 1.76 1.73 1.72 1.69 1.70 1.77 1.76
0.99 0.96 0.94 0.91 0.92 0.91 0.89 0.88 0.89 0.93 0.95 0.96 0.95 0.94 0.94 0.95 0.96 0.96 0.97 0.97 0.97 0.97 0.98 1.00 1.02 1.01 0.99 0.97 0.97 0.99 1.01 1.02 1.01 1.04 1.04 1.02 1.04 1.05 1.02 1.02 1.05 1.04 0.98 0.92 0.91 0.94 0.97 0.93 0.90 0.90 0.89 0.90 0.88 0.80 0.87 0.96 0.95 0.94 0.89 0.92 0.95 1.04 1.09 1.14 1.18 1.30 1.45 1.56 1.60 1.62 1.69 1.74 1.78 1.83 1.83 1.80 1.81 1.81 1.77 1.74 1.72 1.68 1.67 1.71 1.74
0.97 0.91 0.91 0.91 0.92 0.92 0.92 0.94 0.97 1.00 1.00 0.96 0.93 0.94 0.96 0.97 0.97 0.98 0.99 0.97 0.96 0.94 0.95 0.97 1.00 1.01 1.02 1.02 1.03 1.04 1.05 1.06 1.06 1.06 1.03 1.02 1.06 1.00 1.00 0.96 0.97 0.96 0.89 0.92 0.99 0.99 0.97 0.94 0.90 0.90 0.91 0.87 0.85 0.90 0.94 0.95 0.90 0.90 0.97 0.96 0.91 0.94 1.00 1.10 1.19 1.21 1.33 1.45 1.49 1.53 1.64 1.73 1.76 1.80 1.80 1.79 1.80 1.80 1.77 1.74 1.72 1.69 1.64 1.63 1.67
0.95 0.95 0.98 0.99 0.94 0.94 0.97 0.98 1.01 1.05 1.01 0.94 0.95 0.96 0.96 0.98 1.02 1.02 1.03 1.02 1.00 0.97 0.98 0.99 1.02 1.05 1.07 1.07 1.06 1.07 1.10 1.09 1.08 1.04 1.04 1.06 1.03 0.97 0.97 1.00 0.97 0.96 0.99 1.02 0.95 0.93 0.92 0.90 0.88 0.91 0.86 0.83 0.83 0.85 0.86 0.87 0.86 0.87 0.96 1.01 0.98 1.02 1.04 1.05 1.13 1.27 1.34 1.37 1.45 1.50 1.53 1.66 1.69 1.72 1.75 1.74 1.75 1.77 1.77 1.76 1.74 1.71 1.66 1.62 1.67
0.97 0.99 0.97 0.95 0.96 0.96 0.95 0.99 1.04 1.05 1.01 0.99 0.97 0.97 1.00 1.03 1.06 1.07 1.09 1.09 1.09 1.07 1.04 1.03 1.06 1.10 1.11 1.10 1.09 1.08 1.06 1.06 1.05 1.04 1.06 1.09 1.10 1.08 1.06 1.07 1.07 1.07 1.03 0.97 0.93 0.92 0.91 0.86 0.85 0.84 0.81 0.80 0.83 0.87 0.88 0.91 0.96 0.99 0.99 1.02 0.97 1.01 1.04 1.01 1.06 1.17 1.31 1.38 1.40 1.41 1.46 1.61 1.66 1.68 1.74 1.72 1.76 1.79 1.76 1.74 1.71 1.69 1.65 1.62 1.66
0.95 0.95 0.94 0.93 0.96 0.99 1.00 1.02 1.04 1.03 1.02 1.03 1.01 1.01 1.06 1.11 1.12 1.10 1.09 1.10 1.10 1.08 1.08 1.07 1.05 1.07 1.09 1.09 1.08 1.07 1.06 1.05 1.05 1.04 1.05 1.05 1.07 1.10 1.12 1.13 1.12 1.05 1.00 0.96 0.93 0.97 0.94 0.87 0.86 0.85 0.84 0.83 0.87 0.92 0.93 0.95 0.99 1.01 1.02 1.05 1.02 1.01 0.97 0.93 0.88 1.03 1.25 1.35 1.40 1.43 1.42 1.54 1.62 1.59 1.68 1.73 1.75 1.76 1.76 1.73 1.71 1.69 1.67 1.66 1.68
0.96 0.97 0.96 0.95 0.99 1.04 1.08 1.10 1.09 1.03 1.00 1.02 1.04 1.07 1.10 1.12 1.15 1.15 1.14 1.12 1.09 1.06 1.05 1.03 1.01 1.01 1.02 1.04 1.07 1.08 1.06 1.02 1.02 1.04 1.05 1.07 1.09 1.08 1.08 1.11 1.09 1.08 1.09 1.04 0.99 0.98 0.93 0.88 0.86 0.86 0.87 0.87 0.89 0.94 0.97 1.00 1.00 1.04 1.07 1.07 1.04 1.00 0.97 0.95 0.95 0.95 1.14 1.39 1.39 1.42 1.43 1.56 1.63 1.60 1.61 1.69 1.74 1.74 1.73 1.73 1.72 1.70 1.70 1.73 1.76
0.99 0.98 0.99 1.02 1.07 1.13 1.16 1.15 1.11 1.07 1.04 1.08 1.09 1.09 1.10 1.11 1.13 1.13 1.12 1.10 1.07 1.03 1.02 0.99 0.99 0.99 1.00 1.02 1.03 1.06 1.05 1.02 1.04 1.07 1.09 1.09 1.10 1.09 1.07 1.08 1.09 1.09 1.05 1.05 1.09 1.04 1.00 0.94 0.89 0.90 0.92 0.92 0.92 0.96 1.03 1.06 1.10 1.04 1.07 1.05 1.06 1.05 1.03 0.99 0.98 1.02 1.11 1.34 1.36 1.34 1.36 1.48 1.58 1.57 1.54 1.64 1.71 1.74 1.74 1.74 1.73 1.73 1.77 1.81 1.80
0.99 1.02 1.07 1.10 1.15 1.18 1.20 1.22 1.20 1.16 1.15 1.15 1.13 1.10 1.06 1.05 1.05 1.07 1.08 1.08 1.07 1.03 1.01 1.00 0.99 1.00 1.02 1.02 1.03 1.03 1.04 1.04 1.06 1.08 1.08 1.07 1.08 1.09 1.09 1.08 1.10 1.12 1.10 1.11 1.10 1.08 1.05 1.00 0.97 0.94 0.97 1.01 0.98 1.03 1.10 1.15 1.10 1.06 1.07 1.04 1.08 1.05 1.03 1.01 1.08 1.10 1.14 1.28 1.26 1.33 1.36 1.48 1.58 1.56 1.52 1.59 1.71 1.73 1.73 1.74 1.75 1.77 1.80 1.78 1.77
1.00 1.05 1.10 1.14 1.18 1.21 1.24 1.33 1.38 1.35 1.26 1.18 1.11 1.08 1.05 1.02 1.02 1.06 1.10 1.10 1.08 1.05 1.02 1.01 1.00 1.01 1.02 1.06 1.07 1.05 1.04 1.05 1.09 1.11 1.10 1.10 1.10 1.09 1.06 1.02 1.04 1.07 1.09 1.12 1.11 1.09 1.06 1.03 1.02 1.01 1.02 1.05 1.08 1.12 1.17 1.19 1.17 1.17 1.17 1.14 1.15 1.13 1.13 1.15 1.13 1.12 1.11 1.22 1.29 1.35 1.26 1.48 1.66 1.57 1.59 1.63 1.71 1.73 1.75 1.74 1.76 1.77 1.78 1.77 1.77
1.07 1.12 1.16 1.19 1.21 1.31 1.40 1.48 1.45 1.32 1.23 1.17 1.10 1.06 1.03 1.02 1.03 1.07 1.09 1.07 1.04 1.02 0.98 0.98 1.01 1.02 1.04 1.05 1.04 1.04 1.05 1.06 1.08 1.13 1.14 1.16 1.12 1.06 1.02 1.02 1.01 1.04 1.08 1.14 1.17 1.15 1.12 1.08 1.06 1.05 1.07 1.09 1.13 1.18 1.21 1.21 1.21 1.23 1.24 1.25 1.24 1.19 1.12 1.04 0.97 1.03 1.02 1.12 1.27 1.31 1.35 1.47 1.70 1.63 1.55 1.66 1.76 1.73 1.78 1.78 1.78 1.77 1.77 1.77 1.79
1.13 1.17 1.22 1.31 1.34 1.31 1.28 1.24 1.22 1.25 1.22 1.17 1.08 1.03 1.00 1.00 1.01 1.03 1.04 1.04 1.00 0.96 0.93 0.96 0.98 1.00 1.01 1.01 1.01 1.02 1.03 1.06 1.11 1.12 1.15 1.16 1.10 1.05 1.01 0.97 0.99 1.02 1.05 1.13 1.17 1.17 1.14 1.11 1.08 1.09 1.10 1.12 1.17 1.21 1.24 1.26 1.26 1.27 1.24 1.17 1.12 1.18 1.08 0.97 0.96 0.98 0.96 1.05 1.21 1.36 1.45 1.47 1.62 1.68 1.60 1.64 1.71 1.75 1.78 1.79 1.81 1.80 1.81 1.82 1.83
1.18 1.28 1.31 1.29 1.30 1.28 1.18 1.17 1.22 1.26 1.22 1.11 1.03 1.01 0.99 0.98 0.98 0.99 1.00 0.98 0.94 0.91 0.91 0.93 0.93 0.94 0.95 0.95 0.97 0.99 1.02 1.06 1.11 1.13 1.16 1.15 1.05 1.01 0.98 0.95 0.94 0.98 1.02 1.10 1.13 1.14 1.15 1.12 1.10 1.11 1.12 1.13 1.16 1.21 1.26 1.28 1.30 1.31 1.24 1.12 1.19 1.20 1.07 1.04 0.96 0.97 1.00 1.05 1.15 1.42 1.44 1.46 1.63 1.72 1.64 1.65 1.69 1.78 1.83 1.87 1.86 1.84 1.85 1.86 1.81
1.27 1.31 1.34 1.35 1.34 1.28 1.22 1.23 1.31 1.25 1.13 1.04 1.01 0.99 0.97 0.96 0.97 0.97 0.97 0.95 0.91 0.88 0.86 0.86 0.89 0.90 0.90 0.91 0.95 0.99 1.02 1.07 1.09 1.09 1.10 1.08 1.04 1.01 0.98 0.95 0.95 0.96 1.01 1.08 1.06 1.04 1.04 1.04 1.07 1.11 1.10 1.13 1.16 1.20 1.26 1.30 1.33 1.35 1.34 1.30 1.31 1.23 1.11 1.08 1.06 1.04 0.95 0.95 1.15 1.46 1.41 1.51 1.57 1.67 1.66 1.56 1.47 1.69 1.87 1.84 1.81 1.85 1.88 1.85 1.80
Wind_Speed
4 5 5 6 6 6 7 7 8 8 8 9 9 9 9 10 10 10 11 12 12 12 12 13 13 13 12 12 12 12 12 12 12 12 12 12 11 11 13 14 15 16 16 16 16 16 16 16 16 16 15 15 14 14 14 14 13 12 12 12 11 11 11 11 11 11 11 11 10 10 9 9 9 9 8 8 8 7 7 7 6 6 6 6 5
4 5 6 6 6 7 7 8 8 9 9 10 10 10 10 11 11 11 12 13 13 13 13 13 13 13 13 13 12 12 12 12 12 12 12 12 12 12 13 14 15 16 17 17 17 17 17 17 17 17 16 16 16 15 15 15 15 14 13 13 12 12 12 12 12 12 11 11 11 11 10 10 10 9 9 9 8 8 8 7 7 7 6 6 6
5 5 6 6 6 7 8 8 9 10 10 11 11 12 12 12 12 13 13 14 14 13 14 14 14 13 13 13 13 12 12 12 12 13 13 13 13 13 14 14 16 17 18 18 18 18 18 18 18 18 17 17 17 17 16 16 16 16 15 14 14 13 13 13 13 12 12 12 12 12 11 11 11 10 10 9 9 9 8 8 8 7 7 7 6
5 5 6 7 7 7 8 9 10 10 11 11 12 12 13 13 13 14 15 15 15 14 14 14 14 14 14 14 13 13 13 13 13 14 14 14 14 15 15 15 16 17 18 19 19 19 19 19 19 19 19 18 18 18 18 17 17 17 17 16 15 15 14 14 14 13 13 13 13 13 12 12 12 11 11 10 10 10 9 9 8 8 8 7 7
5 6 7 7 8 8 9 10 11 11 12 12 12 13 13 14 14 15 15 15 16 15 15 14 14 14 14 14 13 13 14 14 14 15 15 15 15 15 16 17 17 18 18 19 20 20 20 20 20 20 20 20 20 20 19 19 18 18 18 18 17 16 16 15 15 14 14 14 14 14 13 13 13 13 12 11 11 11 10 10 9 9 9 8 8
6 7 7 8 9 9 10 11 11 11 12 12 12 12 13 13 14 14 15 16 16 16 15 15 14 14 14 14 13 13 13 14 15 16 16 17 17 16 17 18 18 18 19 20 20 21 21 21 21 21 21 21 21 21 21 20 20 19 19 19 18 18 17 17 16 16 15 15 15 15 14 14 14 14 13 13 12 12 11 11 11 10 9 9 9
7 7 8 8 9 10 11 11 11 11 11 11 11 12 13 13 14 15 15 16 16 15 15 15 15 14 14 14 14 14 14 14 15 16 17 17 17 17 17 18 19 20 20 20 21 21 23 23 23 23 23 23 23 23 23 22 21 21 20 20 20 19 19 19 18 17 17 16 16 16 16 15 15 15 14 14 13 13 12 12 12 11 11 10 10
7 8 8 9 10 11 11 11 11 11 11 11 12 13 13 14 14 15 16 16 15 15 14 14 14 15 15 15 15 15 15 15 15 16 17 17 17 18 18 18 19 20 21 21 21 22 23 25 25 25 25 24 24 24 24 24 23 22 22 21 21 21 20 20 20 19 18 18 17 17 17 17 16 16 15 15 14 14 14 13 13 13 12 11 11
8 8 8 9 10 11 11 11 11 12 12 12 13 13 14 14 15 15 15 15 15 14 14 14 14 15 15 15 15 16 16 16 16 16 16 17 17 18 19 20 20 21 22 22 22 22 24 25 26 27 27 26 26 26 26 25 24 24 23 23 22 22 22 21 21 21 20 19 19 18 18 18 18 17 17 16 16 15 15 14 14 14 13 13 12
8 8 9 10 11 11 11 11 12 12 13 13 13 14 14 14 14 14 14 14 14 14 14 14 14 15 15 15 15 15 15 16 16 16 16 15 16 17 19 20 21 21 22 22 23 23 24 25 26 28 29 28 28 28 28 27 26 25 25 24 24 24 23 23 23 22 22 21 21 20 19 19 19 19 18 17 17 16 16 16 15 15 15 14 14
8 8 9 10 11 11 11 12 13 13 13 13 13 14 13 14 14 14 14 14 14 14 14 14 14 15 15 15 15 15 15 15 15 15 15 15 15 16 18 19 20 21 21 22 23 23 24 25 26 27 28 29 29 29 29 29 28 27 26 26 26 25 25 24 24 23 23 23 22 22 21 21 20 20 20 19 18 18 17 17 16 16 16 15 15
8 9 10 10 11 11 12 13 13 13 13 13 13 14 14 14 14 14 14 15 15 14 14 14 14 15 15 15 15 15 15 14 14 13 13 13 14 15 16 17 19 20 20 21 22 23 24 25 26 27 28 29 30 30 30 30 29 28 28 27 27 27 26 26 25 25 24 24 24 24 23 22 22 21 21 21 20 19 19 18 18 17 17 16 16
9 9 10 11 11 12 13 13 13 13 13 13 14 14 14 15 15 14 14 15 15 15 14 14 15 15 15 15 16 15 15 14 13 12 12 13 13 14 14 15 17 18 20 21 21 22 23 25 26 27 28 29 30 30 31 30 30 30 30 29 28 28 28 27 27 27 26 26 25 25 25 24 24 23 23 22 21 21 20 20 19 19 18 17 17
9 10 11 11 12 13 13 13 13 14 14 14 14 14 15 15 15 15 14 15 15 15 15 14 14 15 15 16 16 15 15 14 13 13 13 13 13 13 14 15 16 17 18 20 21 22 22 23 24 25 26 27 28 30 31 31 30 30 30 31 30 30 29 29 29 28 28 27 27 26 26 26 25 25 24 24 23 22 22 21 21 20 19 19 18
10 10 11 12 13 13 13 13 14 14 14 15 15 15 15 16 16 16 15 15 15 15 15 15 14 15 15 15 15 16 15 14 14 15 13 13 13 13 14 14 15 16 17 18 19 21 21 22 23 23 24 25 27 28 30 30 30 30 31 32 32 32 31 30 30 30 29 29 28 28 28 27 27 26 26 25 25 24 23 23 22 21 21 20 19
10 11 11 11 12 12 13 13 14 14 15 15 15 16 16 16 16 16 16 15 15 15 15 15 15 15 15 15 15 15 15 15 16 16 14 14 14 14 14 15 15 16 16 17 18 19 20 22 22 23 24 24 25 27 29 30 31 31 31 32 33 34 33 33 32 32 31 31 30 30 29 29 28 28 27 27 26 26 25 24 24 23 22 22 21
10 10 11 11 12 12 13 13 14 14 15 16 16 16 17 16 16 15 15 15 15 16 15 15 16 15 15 15 15 14 15 16 17 16 15 15 15 14 15 15 16 16 16 17 18 19 20 21 22 23 24 24 25 27 28 29 31 31 31 32 33 34 35 34 33 33 33 32 32 31 31 31 30 29 28 28 27 27 26 26 25 24 24 23 22
10 10 11 12 12 12 13 13 14 14 15 16 16 17 17 17 16 15 15 15 15 16 16 16 16 16 15 15 15 15 16 16 15 15 16 16 15 15 15 15 16 16 17 18 19 20 21 22 23 24 24 25 26 27 27 28 30 31 32 33 34 34 35 35 34 34 34 34 33 33 33 32 32 31 30 29 29 28 28 27 27 26 25 24 24
10 11 12 12 12 13 13 14 14 15 15 16 16 17 17 17 16 16 15 15 16 17 17 17 17 16 16 16 16 16 16 16 15 16 17 16 16 16 16 16 16 16 17 18 19 20 21 22 24 25 26 26 27 28 28 28 29 30 32 33 34 34 34 35 35 35 35 36 35 35 34 34 33 33 32 31 30 30 29 29 28 27 26 26 25
12 12 12 12 13 13 14 14 15 15 15 16 16 16 16 17 16 16 16 16 16 17 17 17 17 17 17 17 17 16 16 16 16 16 16 17 18 18 18 18 18 17 18 18 19 20 21 22 24 25 26 27 28 29 29 29 29 30 31 32 33 34 34 34 35 36 36 37 37 37 36 35 35 35 34 33 32 31 31 30 29 29 28 27 26
12 12 13 13 13 14 14 14 15 15 15 16 16 16 16 16 16 16 16 16 16 16 17 17 17 16 17 17 17 17 17 17 17 17 17 18 19 19 20 20 19 19 19 19 20 20 21 22 23 25 26 27 28 29 30 30 31 31 32 32 33 34 35 35 36 36 37 37 37 38 37 37 36 36 36 35 34 33 32 32 31 30 29 28 28
12 13 13 14 14 14 14 15 15 15 15 16 15 15 16 16 16 16 16 17 17 16 17 17 16 16 17 17 18 18 18 18 18 18 19 19 20 20 20 20 20 21 21 20 21 21 22 22 23 24 25 26 28 29 30 31 32 32 33 33 34 35 36 36 36 37 37 37 37 38 38 38 38 37 37 37 36 35 34 33 32 31 31 30 29
13 14 14 14 14 14 14 15 15 15 15 16 16 16 16 16 16 16 16 17 17 17 17 17 17 17 17 18 18 19 19 19 19 20 20 20 21 21 20 21 21 22 22 22 22 22 23 23 23 23 24 25 27 28 30 31 32 33 33 34 34 35 36 37 37 37 38 39 38 39 39 39 38 38 38 38 38 37 36 35 34 33 32 31 30
14 14 14 14 14 15 15 15 15 15 16 16 16 16 16 17 17 16 17 17 17 17 17 17 17 17 18 19 19 19 19 19 20 21 21 21 21 21 21 22 21 22 23 23 23 23 23 22 23 23 24 25 26 28 29 30 32 33 34 34 34 35 36 37 38 38 39 40 39 40 40 40 39 39 39 39 39 38 38 37 36 35 34 33 32
15 15 15 15 15 15 15 15 15 15 16 16 17 17 17 17 17 17 17 17 17 18 18 18 18 18 19 19 19 20 20 20 21 21 22 22 22 22 22 23 23 23 23 23 23 23 22 22 22 23 24 25 27 28 29 30 32 33 34 34 35 35 36 37 37 38 39 40 40 40 40 40 40 40 40 40 40 40 39 39 38 36 35 35 34
15 15 15 15 16 15 15 15 16 16 16 16 17 17 18 18 18 18 18 18 18 18 18 18 18 19 20 20 20 21 21 21 22 22 22 23 23 23 24 25 24 24 24 23 23 23 22 22 22 23 24 25 27 28 29 31 32 33 34 35 35 36 36 37 37 38 39 40 41 41 41 41 41 41 41 41 41 40 40 40 39 39 37 36 35
15 16 16 16 16 15 15 16 16 16 16 17 17 18 18 18 18 18 19 18 19 19 19 19 19 20 21 21 21 21 21 22 22 23 24 24 24 25 26 26 26 25 24 24 24 23 23 24 24 23 24 25 27 28 30 32 33 34 35 36 36 37 37 38 38 38 39 40 41 42 41 41 41 41 41 42 41 41 41 40 40 40 39 38 37
16 17 16 16 15 15 16 16 17 17 17 17 18 18 18 18 19 19 20 19 20 20 20 20 21 21 22 22 22 22 22 23 23 24 25 25 25 26 27 27 27 26 25 25 24 24 24 25 25 25 25 26 27 28 30 32 33 35 36 37 37 38 38 39 39 39 39 40 41 42 42 42 42 42 42 42 42 42 42 41 41 41 41 40 39
16 17 16 16 16 16 17 18 18 18 18 18 19 19 19 19 20 20 21 21 21 21 21 22 22 23 23 23 23 23 24 24 25 25 25 26 26 27 28 28 28 27 27 26 25 25 25 26 26 27 27 28 28 29 30 31 33 35 36 37 38 38 39 39 40 40 41 41 41 42 43 43 43 43 43 43 43 43 42 42 42 41 41 41 41
17 17 17 17 17 17 18 18 18 19 19 20 20 20 20 20 20 21 22 22 22 22 22 23 23 24 24 24 24 24 25 25 26 26 26 27 27 28 29 29 29 29 28 28 26 26 26 27 28 29 30 30 30 30 30 31 33 34 36 37 38 38 39 40 41 41 41 42 42 42 43 44 43 43 43 43 43 43 43 42 42 42 42 42 42
17 18 18 18 18 18 19 19 19 20 20 21 21 21 21 21 21 22 22 22 23 23 23 24 24 24 25 25 25 25 25 26 26 27 27 27 28 29 29 29 29 30 29 28 27 26 27 28 29 30 31 31 32 32 31 31 32 34 35 36 38 39 39 40 41 42 42 43 43 43 44 45 45 44 44 44 43 42 43 43 42 42 43 43 43
18 19 19 19 18 19 20 20 20 21 21 21 21 21 22 22 22 22 23 23 23 24 24 25 25 25 26 26 26 26 26 27 28 28 28 28 29 29 30 30 30 31 30 29 29 28 28 29 29 30 31 32 32 32 32 32 32 33 35 36 37 39 40 40 40 41 42 43 44 44 44 45 46 46 45 45 44 43 42 42 42 42 43 43 43
19 19 20 19 19 20 20 21 21 21 22 22 22 22 22 22 22 23 23 24 24 25 25 26 25 26 26 26 27 28 28 28 28 28 28 29 30 30 30 30 31 31 31 30 30 29 29 29 30 30 31 31 32 32 33 33 33 33 34 35 37 38 39 40 40 41 41 43 44 44 44 45 46 47 47 46 46 44 43 42 42 42 42 43 43
19 20 21 20 20 20 21 21 22 22 22 22 23 22 22 23 23 24 24 24 25 25 26 26 26 26 27 27 28 29 28 28 28 28 29 30 31 31 31 31 31 31 31 30 30 30 29 30 30 31 31 32 32 33 33 34 34 34 34 35 36 37 39 40 40 41 41 42 43 44 44 44 46 47 47 47 47 46 44 43 43 42 42 43 43
21 21 21 21 21 21 21 22 22 22 22 23 23 23 23 23 24 24 24 25 26 26 27 27 27 27 27 28 29 29 28 28 29 30 31 31 31 31 31 31 31 31 30 30 30 30 30 30 30 31 32 32 33 33 34 34 34 34 35 35 36 37 38 40 40 41 42 42 43 43 44 44 45 46 47 47 47 47 45 44 43 42 42 42 43
21 22 22 21 21 21 22 22 22 22 23 23 23 24 24 23 24 24 25 26 27 27 27 27 27 27 28 28 29 29 28 29 30 31 31 32 31 31 31 31 30 29 29 29 29 30 30 31 31 31 32 33 34 34 34 35 34 35 35 36 36 37 38 39 40 40 42 43 43 43 43 43 44 46 47 47 46 46 46 44 43 42 42 42 42
22 22 22 21 21 21 22 22 22 23 23 24 24 24 24 23 24 24 25 26 27 27 27 27 27 28 28 28 29 29 29 29 30 31 31 31 31 31 32 31 30 30 29 29 30 30 31 31 32 32 33 34 34 34 35 35 35 35 35 36 36 37 38 39 40 40 41 42 43 43 43 43 44 45 46 47 46 45 45 45 43 42 41 41 41
22 22 22 21 21 22 22 23 23 24 24 24 24 24 24 23 24 25 26 26 26 27 27 27 27 28 28 29 29 29 29 29 30 31 30 30 30 31 32 32 32 31 31 31 31 31 31 31 32 33 34 34 35 35 35 35 36 35 36 36 36 36 37 38 39 39 39 41 42 42 42 42 43 44 45 46 46 45 45 44 43 42 41 41 40
22 22 22 21 22 22 22 23 23 24 24 24 24 24 24 24 25 26 26 26 26 27 27 27 28 28 29 29 29 28 28 29 30 30 30 30 30 31 32 32 32 31 32 32 31 31 31 32 33 34 34 35 36 36 36 36 36 35 35 36 36 36 37 38 39 39 39 40 42 43 43 42 43 44 45 46 46 45 45 45 44 43 42 41 40
22 22 21 21 22 22 22 22 23 24 24 25 24 24 24 25 26 26 26 27 27 27 28 28 28 28 29 29 28 28 28 29 29 29 29 29 29 30 31 30 30 30 30 30 30 31 32 33 33 34 35 36 37 37 36 36 35 35 35 35 36 37 37 38 39 39 39 40 41 42 43 42 42 43 44 45 45 45 45 45 44 43 43 42 41
21 21 21 22 22 22 22 23 24 24 24 24 25 25 26 26 27 27 27 27 28 28 28 29 29 29 29 28 28 28 28 28 28 28 28 29 29 29 29 29 28 28 28 29 29 31 32 33 33 34 35 36 37 37 36 35 35 35 35 35 36 37 38 38 39 39 40 40 40 41 42 42 41 41 43 44 45 45 45 45 44 44 43 43 42
21 21 21 22 22 22 23 24 24 24 24 24 25 26 27 27 28 28 28 28 28 29 29 29 30 29 29 28 28 28 28 28 28 28 28 28 29 28 28 27 27 27 27 28 29 30 31 32 33 34 35 36 37 38 37 36 36 35 35 35 35 37 38 38 38 39 39 39 40 40 41 41 41 40 42 43 44 44 44 44 44 44 43 43 42
20 20 21 21 22 22 23 24 25 25 25 25 26 26 27 28 28 28 28 29 29 29 29 30 31 30 30 29 28 28 28 28 27 28 28 28 28 28 27 27 27 27 28 29 29 30 31 32 34 35 36 37 38 39 38 37 36 35 34 34 35 36 37 38 37 38 38 39 39 39 40 41 41 40 41 42 43 43 43 43 44 44 43 43 43
20 20 21 22 23 24 24 25 25 26 26 26 27 26 27 28 29 29 29 29 29 29 30 31 31 31 30 29 28 28 28 27 27 28 28 28 27 27 26 26 26 27 28 28 29 30 31 33 34 35 37 38 38 38 37 36 35 34 33 33 34 35 37 38 38 38 38 38 38 38 38 39 40 40 40 41 42 43 42 42 43 43 43 43 43
21 21 22 23 24 25 25 26 26 26 26 26 26 27 28 29 29 30 30 30 30 30 31 31 31 31 30 29 28 28 28 28 27 27 27 27 26 26 26 26 26 27 27 28 28 30 32 33 35 36 37 38 38 38 36 35 34 33 32 32 33 34 36 39 39 39 39 39 39 38 37 38 40 40 40 40 41 41 41 41 42 42 42 42 42
22 22 23 24 25 26 27 27 26 25 26 26 27 28 29 30 30 30 30 30 30 31 31 31 31 30 29 28 28 28 28 28 27 27 27 26 26 26 26 26 26 27 27 28 28 30 31 33 34 36 37 38 38 37 36 34 33 32 31 32 33 34 36 38 40 40 40 40 39 38 37 37 39 40 39 39 40 40 40 39 40 41 41 41 40
22 22 23 25 26 27 28 27 25 25 27 28 29 30 31 31 30 30 30 29 30 31 31 30 30 29 28 28 28 28 28 28 27 27 26 26 26 26 26 26 26 27 27 27 28 30 31 32 34 35 37 38 38 37 35 33 33 32 31 32 33 34 35 37 40 40 41 41 41 39 37 36 37 39 39 38 39 39 39 39 39 40 40 40 40
22 22 24 25 26 27 27 26 26 29 31 31 31 31 32 31 31 31 30 30 30 31 30 29 28 28 28 28 29 29 29 29 28 27 26 26 26 26 26 26 27 27 27 27 28 30 31 32 33 35 37 38 38 36 35 33 33 32 32 32 32 33 34 36 38 40 40 41 41 40 37 35 36 37 38 38 38 39 39 38 38 39 40 40 39
23 23 24 25 26 27 28 28 30 31 31 31 32 32 32 32 31 31 31 31 31 30 30 29 28 28 28 29 30 30 29 28 27 26 26 26 26 26 26 26 26 26 26 27 28 29 30 31 33 35 37 37 36 35 34 33 32 32 32 32 32 31 32 34 37 38 39 40 40 39 38 36 35 35 36 37 38 38 38 37 37 38 39 39 39
23 24 25 26 27 28 29 30 31 30 30 32 33 32 32 32 31 31 31 31 31 30 30 29 28 28 29 30 30 29 29 27 26 25 25 26 26 26 26 26 25 26 26 26 27 28 29 30 32 34 36 36 35 34 33 32 32 31 31 31 31 29 30 33 35 37 38 39 39 38 37 35 35 35 35 36 37 36 36 36 36 36 36 36 37
25 26 27 28 29 30 30 30 30 30 33 34 33 32 32 32 31 31 31 31 31 31 30 29 29 29 29 30 29 28 27 26 25 25 25 25 25 25 25 25 25 25 26 26 27 27 28 30 31 33 35 35 33 33 32 32 31 28 28 28 27 26 29 32 35 36 36 37 38 38 35 34 34 35 35 35 35 35 35 36 36 35 34 34 35
Wind_Direction
329 332 334 333 328 326 325 325 326 326 324 322 320 320 321 321 323 324 325 324 322 317 312 308 305 303 302 301 299 293 287 282 276 271 268 267 266 261 250 241 236 232 231 231 230 230 230 230 230 230 230 230 228 226 225 224 223 222 221 219 218 217 216 214 212 212 212 213 214 217 218 214 209 207 207 208 207 206 206 205 205 203 202 202 202
325 328 329 327 322 321 322 322 321 320 320 319 316 314 315 315 316 318 320 321 320 316 313 310 307 303 300 300 299 296 290 283 277 272 268 265 264 261 255 245 237 233 232 232 233 233 233 232 232 232 232 232 231 229 227 227 226 225 224 223 221 221 220 218 217 215 214 215 216 218 220 217 212 210 210 210 209 209 208 208 207 206 206 206 207
322 326 328 327 321 319 318 319 319 318 319 318 316 315 314 313 313 313 315 317 317 315 313 311 309 306 301 299 298 294 290 285 280 275 270 265 262 259 257 252 242 236 235 234 234 235 234 233 233 233 233 233 233 232 230 229 228 228 228 226 225 224 223 223 221 220 218 218 218 219 221 220 216 213 212 212 212 212 212 211 209 209 208 209 211
317 320 326 328 326 323 320 320 319 318 318 318 318 317 316 315 314 313 314 315 315 314 312 310 308 307 304 301 298 293 288 285 282 278 273 268 263 258 256 254 246 240 239 238 237 237 236 235 234 234 234 235 235 234 232 231 230 230 230 229 228 226 226 225 225 224 222 221 221 221 222 222 220 217 215 215 215 216 215 213 212 211 211 211 213
309 314 320 325 326 326 326 324 322 320 320 319 319 318 317 316 315 315 316 315 316 315 312 309 307 306 305 302 299 294 288 285 282 280 277 271 265 260 257 254 249 245 243 241 240 240 239 238 237 236 235 236 236 235 234 233 231 231 231 230 230 229 228 227 227 227 226 224 223 223 224 224 222 220 219 218 218 218 217 216 215 214 213 214 215
302 309 315 321 324 326 327 326 324 323 323 322 322 321 320 319 317 318 318 317 316 315 312 309 307 306 306 304 300 296 290 287 283 281 278 273 267 263 260 256 252 249 246 244 243 243 242 241 240 239 237 236 236 236 235 234 233 232 232 231 231 230 230 229 228 229 228 227 226 225 225 225 224 223 222 221 220 220 220 219 218 217 217 217 218
300 306 311 316 321 324 325 325 324 325 326 326 326 325 325 322 320 320 320 319 318 316 314 311 309 307 306 305 302 299 294 291 287 284 280 274 268 263 262 259 254 251 249 246 245 246 245 243 242 241 239 238 236 236 236 235 234 233 233 232 232 231 231 230 230 230 230 229 228 227 227 226 225 225 224 223 223 222 221 221 221 221 220 220 220
297 302 309 313 318 321 322 323 323 325 326 326 327 327 326 324 322 322 321 321 320 319 317 314 311 309 307 304 302 300 297 294 290 287 282 276 269 264 262 260 257 254 252 247 244 246 246 244 243 242 241 239 237 236 236 236 235 234 233 233 233 232 232 231 231 230 230 230 229 229 229 228 226 226 226 225 225 224 224 223 223 223 223 223 223
295 300 307 312 316 319 321 322 322 323 324 324 324 324 324 325 325 325 324 325 324 322 319 316 314 311 309 306 304 301 298 296 292 289 285 279 272 266 262 261 259 257 255 251 246 245 246 245 245 243 241 240 239 237 236 236 236 235 234 234 233 233 232 232 232 231 231 231 231 231 231 230 228 227 227 227 227 226 226 225 225 225 226 226 226
294 298 305 310 314 317 320 321 321 321 321 322 323 323 324 326 327 327 328 328 327 325 323 320 317 315 313 311 308 305 302 300 297 292 287 282 275 269 265 262 260 259 257 255 251 249 248 247 246 245 242 240 240 238 236 236 236 236 236 235 234 233 233 233 233 233 232 231 232 232 232 232 231 229 228 228 228 228 227 226 226 226 227 228 229
293 296 304 308 311 315 318 318 318 318 319 320 322 322 324 325 324 326 328 327 326 326 326 324 321 318 316 314 312 310 308 306 302 297 291 285 280 275 269 265 263 261 260 257 255 252 250 249 248 247 244 241 240 239 238 236 236 237 236 236 235 234 233 233 233 233 233 232 232 232 232 233 233 232 230 229 229 229 229 228 228 227 228 229 230
293 298 304 309 311 313 314 315 314 315 316 317 318 320 322 322 320 321 324 325 325 327 328 325 323 321 318 316 314 312 311 309 306 302 297 290 286 281 274 269 265 264 262 259 256 254 253 252 251 250 248 247 244 242 240 238 236 237 237 236 236 236 235 234 233 234 234 234 233 233 233 233 233 233 232 231 230 230 230 229 229 229 229 230 231
296 300 305 309 310 310 313 314 313 314 314 315 316 316 320 322 320 319 319 321 323 324 325 325 323 322 322 319 318 317 314 312 309 306 303 297 291 286 280 273 268 266 264 261 258 257 256 255 254 253 253 252 249 246 244 242 239 239 238 237 237 237 236 235 234 234 234 234 234 234 234 233 233 234 234 233 232 231 231 231 231 231 231 231 231
299 302 305 306 308 309 312 313 313 314 315 315 315 314 316 319 318 316 315 315 316 319 320 321 321 322 323 322 321 321 321 317 312 309 305 298 295 291 285 278 273 270 268 264 261 259 258 256 255 254 254 253 250 247 245 244 243 242 241 240 238 237 237 236 235 234 234 235 235 235 235 234 234 234 234 234 233 232 232 232 232 232 232 232 232
300 301 303 303 306 309 310 312 313 314 316 316 315 314 315 315 314 313 312 311 312 315 316 315 316 318 320 321 320 321 321 321 316 312 307 300 297 294 288 283 278 274 271 268 264 261 259 256 256 255 253 253 252 248 246 244 243 244 244 243 241 239 237 236 236 235 234 234 235 235 235 235 235 235 235 234 234 234 233 233 233 233 233 233 233
297 299 302 304 305 307 309 311 313 314 315 315 315 314 313 313 313 311 310 310 310 313 315 313 312 315 318 317 317 317 315 318 317 313 310 306 302 299 294 288 283 277 272 269 266 264 261 258 258 257 255 255 255 251 248 246 245 244 245 245 244 242 239 237 237 236 235 234 235 235 235 235 235 235 235 235 235 234 234 234 234 234 234 234 234
299 302 304 306 307 308 309 311 312 312 312 313 313 314 314 314 314 312 310 309 309 310 313 313 311 312 315 314 314 313 310 315 317 313 312 310 305 303 300 294 288 281 276 270 266 266 264 260 261 261 258 257 257 254 251 249 247 246 246 246 246 245 241 239 238 237 236 235 235 235 236 236 235 235 235 235 235 235 235 234 234 234 234 235 235
306 307 308 309 309 309 310 311 312 312 311 312 313 314 314 314 314 313 311 308 307 307 309 310 310 311 313 313 311 309 308 313 316 312 312 312 309 306 302 299 294 287 281 276 271 268 266 263 262 262 261 259 258 257 255 253 250 248 247 247 247 246 244 242 240 239 238 237 236 235 235 236 236 236 235 235 235 235 235 235 235 235 235 235 235
312 311 312 311 310 310 311 312 312 312 312 312 312 312 312 312 312 311 310 308 306 305 306 308 309 310 312 311 310 310 309 312 313 312 312 312 311 309 305 302 299 293 288 283 278 274 270 267 265 263 262 260 259 258 256 255 251 249 248 248 247 247 245 244 242 241 240 239 238 236 235 236 236 236 236 235 235 235 235 235 235 235 235 236 236
316 315 314 312 311 310 311 312 312 312 312 312 311 310 310 310 311 310 309 308 307 307 308 309 310 311 311 310 311 312 311 311 310 310 310 309 310 310 307 305 300 295 294 290 285 280 276 273 269 265 263 261 259 258 256 255 252 250 250 249 248 246 245 244 243 242 241 240 240 238 237 236 236 236 236 236 235 235 235 235 235 235 235 235 236
317 315 315 314 311 311 312 312 312 312 312 312 311 310 309 309 309 310 309 308 309 309 309 310 310 309 309 310 312 311 311 310 310 309 308 307 308 309 307 305 300 295 295 293 290 286 282 277 273 269 265 261 259 258 257 255 253 252 251 251 248 246 245 245 245 243 241 240 239 238 238 237 236 236 236 236 235 235 234 234 235 235 235 235 235
319 317 316 314 311 311 312 313 313 313 313 313 313 311 310 309 309 309 308 308 309 310 309 309 308 307 307 308 309 310 310 310 310 309 308 306 307 307 307 304 300 295 294 293 292 290 286 282 277 273 269 264 260 258 257 255 254 252 251 251 250 247 246 246 245 244 241 240 239 238 238 237 236 236 236 236 236 235 235 234 234 234 234 235 235
321 320 318 313 311 311 313 313 314 314 314 313 313 312 310 309 309 308 308 308 308 309 308 307 307 306 306 306 306 308 309 307 308 309 308 306 307 307 308 306 301 296 295 294 292 291 288 285 280 276 273 269 264 260 258 256 255 253 251 251 250 249 247 247 246 244 242 241 240 239 238 237 237 236 236 236 236 235 235 235 234 234 234 234 234
321 321 318 314 313 313 314 314 314 314 314 314 313 312 311 311 310 309 308 308 307 308 307 305 305 305 306 306 306 307 307 306 307 308 307 307 307 306 308 309 304 299 297 296 294 292 290 287 283 279 276 273 269 265 260 258 256 254 253 252 251 250 248 247 246 245 242 241 240 239 238 237 237 236 236 236 236 236 236 236 235 235 234 235 234
320 321 318 315 314 314 314 313 313 313 313 314 313 313 312 312 311 310 309 307 306 306 305 304 304 304 305 306 306 306 306 305 306 306 307 307 307 306 307 309 307 302 299 296 294 293 291 289 286 283 280 276 272 269 265 261 258 256 254 253 253 251 249 248 246 245 243 241 240 239 238 238 238 237 236 235 235 235 236 236 236 235 235 235 235
318 319 317 316 314 313 313 313 314 313 313 313 313 313 312 312 311 310 308 307 306 305 304 304 303 304 305 305 306 305 305 305 305 305 306 307 307 307 307 308 306 303 300 297 294 292 290 290 291 288 284 280 276 272 268 264 261 258 255 254 253 252 250 248 246 245 243 241 240 239 239 239 238 237 236 235 235 235 235 236 236 236 236 236 236
317 317 317 316 315 313 314 315 316 315 314 313 313 312 312 312 310 309 308 307 306 304 304 303 302 303 303 303 304 304 303 304 304 304 305 306 306 307 307 308 306 303 301 298 295 290 287 289 291 290 288 285 281 277 272 268 264 261 258 256 254 253 250 249 247 245 243 241 240 239 239 239 238 237 236 235 235 235 235 236 236 236 236 236 236
318 318 318 317 316 315 314 315 316 315 315 314 314 313 312 311 310 309 308 307 305 305 304 304 302 301 301 301 302 301 302 303 303 303 304 305 305 306 306 307 305 303 301 299 296 290 287 288 289 290 291 290 286 282 276 271 267 263 259 257 255 253 251 249 247 245 244 242 240 239 239 238 237 236 236 236 235 235 235 236 236 237 237 237 237
320 320 320 319 318 316 314 314 315 315 315 314 313 313 312 311 310 309 309 308 306 305 304 304 303 302 302 301 300 300 301 302 303 303 303 304 304 304 304 305 304 303 301 299 296 291 289 290 288 288 291 292 289 286 281 275 270 265 260 257 256 254 251 249 247 245 243 242 240 239 238 238 237 236 236 235 235 235 235 236 236 237 237 237 237
320 320 319 318 317 316 315 314 314 314 314 313 313 312 310 310 309 309 309 308 307 305 304 303 302 302 301 300 299 300 301 301 302 302 303 303 303 303 303 303 303 303 301 299 296 292 290 291 289 288 290 291 290 289 285 279 274 268 262 258 255 254 252 250 247 245 243 242 240 239 238 237 237 236 236 235 234 234 235 236 236 237 236 236 237
317 318 317 316 316 315 315 314 314 314 314 313 312 310 309 309 308 308 309 309 307 306 304 303 302 301 300 299 299 299 300 301 302 302 302 302 302 302 302 302 302 302 300 298 296 293 292 292 291 291 291 291 291 289 287 283 278 271 265 259 255 254 253 250 247 245 244 242 240 239 238 237 237 236 235 234 234 235 235 236 236 237 237 236 236
314 316 316 315 314 314 314 314 313 313 314 313 313 311 309 308 307 308 309 309 308 306 305 304 303 301 300 299 299 299 300 300 301 301 301 301 301 302 301 300 301 300 299 297 296 294 294 293 293 294 294 292 291 289 287 285 281 275 267 261 257 254 252 250 248 245 244 242 241 240 239 237 236 236 235 234 234 235 235 235 236 237 237 236 236
313 314 315 314 312 312 313 313 313 314 314 315 314 312 310 309 308 308 309 309 308 307 306 305 303 302 301 300 299 299 299 299 299 299 300 300 300 301 301 299 299 299 297 296 295 295 294 294 294 295 295 294 292 290 287 284 282 277 270 263 258 254 251 249 248 246 243 241 240 240 239 237 236 235 235 234 234 235 235 236 236 238 237 236 236
311 312 313 312 311 311 312 313 313 314 314 314 314 312 311 310 310 309 309 308 308 307 307 305 303 302 301 300 300 300 299 298 297 298 299 299 300 300 300 299 298 297 296 294 295 295 294 295 295 295 295 294 292 291 289 285 282 278 272 264 259 254 251 248 247 246 244 241 240 239 239 237 236 235 234 234 234 235 236 236 237 237 237 236 236
308 310 310 309 309 310 311 311 312 313 314 314 314 313 311 310 310 309 309 309 308 308 307 305 304 303 302 301 301 301 299 297 297 298 298 298 298 298 298 299 298 296 295 294 294 294 295 296 296 296 296 294 293 292 290 286 282 278 273 266 259 255 251 248 247 245 244 242 240 239 238 237 236 235 234 234 234 234 235 236 236 236 236 235 235
306 307 308 307 308 309 310 311 312 312 313 314 313 313 311 311 310 310 310 309 309 308 307 306 304 303 303 302 302 300 298 296 296 297 298 298 297 297 297 297 297 296 296 294 294 294 295 296 297 297 297 295 294 293 290 287 283 278 273 268 261 255 251 248 246 245 243 242 240 238 238 237 236 235 233 233 233 233 234 235 235 235 235 235 235
304 306 306 306 307 308 310 310 311 312 313 313 313 312 312 312 312 312 311 311 310 309 308 307 305 304 304 303 302 301 298 297 298 298 298 297 297 296 296 295 295 295 295 295 295 295 295 296 297 297 298 297 296 295 291 287 284 279 274 269 262 255 251 248 246 244 242 241 239 237 237 237 236 235 233 232 232 233 233 233 233 234 234 235 235
301 304 305 305 306 307 308 310 311 312 313 313 312 312 312 313 314 314 314 313 312 311 310 308 307 306 304 303 303 302 299 298 299 299 298 298 297 296 295 294 293 292 292 293 294 294 295 296 298 298 299 299 298 296 293 288 284 280 276 271 263 255 250 247 245 243 241 239 237 236 236 236 236 234 232 231 231 232 232 232 232 232 233 234 234
298 301 303 304 306 307 308 309 311 313 313 313 313 312 312 313 315 315 315 314 313 313 311 309 308 306 305 304 304 303 300 300 301 300 299 299 298 297 296 295 293 290 290 291 292 293 294 296 298 298 299 300 299 297 295 290 285 280 276 271 264 256 251 247 244 242 240 239 237 236 235 235 235 234 232 231 231 232 231 231 231 232 233 233 234
296 299 302 304 306 307 308 310 312 313 313 313 312 312 312 313 314 315 314 313 313 312 311 310 309 307 306 305 305 303 302 301 302 301 300 301 300 299 298 296 294 291 290 291 292 294 295 296 298 298 299 300 300 299 296 292 285 280 276 271 264 258 252 247 244 242 240 239 237 236 235 235 234 233 232 231 231 231 231 231 232 233 233 233 234
296 299 302 304 305 306 308 310 312 313 312 312 311 311 312 313 314 314 313 312 312 311 310 309 309 308 306 305 305 305 303 301 301 301 301 302 301 301 300 298 294 292 291 292 294 295 297 298 299 300 300 300 301 300 297 293 287 281 276 270 263 258 253 248 243 241 239 238 237 235 235 234 233 233 231 230 230 230 230 231 231 232 233 233 233
297 300 302 303 305 306 308 310 312 311 310 311 312 311 311 312 312 312 312 312 311 310 310 309 308 308 306 305 305 305 304 302 301 301 301 302 301 301 300 297 295 294 293 294 296 297 299 300 301 302 301 301 301 300 297 294 289 282 276 269 263 258 253 248 243 239 237 236 236 235 234 233 232 232 231 230 230 230 230 230 231 232 232 233 233
297 299 301 303 304 307 309 311 311 310 309 310 311 311 311 311 311 311 311 311 311 311 310 309 308 307 306 305 304 304 304 304 302 301 301 301 301 300 298 296 295 295 295 296 297 298 300 302 303 303 303 302 301 300 297 294 290 283 275 268 261 256 252 247 241 237 235 234 234 235 234 232 231 231 231 230 229 229 229 230 231 232 232 233 233
296 298 299 302 304 307 309 310 311 311 310 310 311 312 312 312 311 311 310 311 311 311 311 310 309 307 306 305 304 304 304 304 303 302 301 300 299 299 297 296 296 297 297 297 298 299 302 304 304 304 304 303 302 301 298 294 290 284 276 268 261 255 250 246 241 236 234 233 234 234 234 232 230 230 231 229 228 228 229 230 230 231 231 232 232
295 296 297 300 303 306 308 309 309 310 311 311 312 313 313 312 311 311 310 310 309 310 311 310 310 308 306 305 306 306 305 304 303 303 302 300 299 298 298 297 297 298 298 297 297 299 303 305 305 305 307 306 304 302 299 294 289 285 278 269 262 255 249 245 241 237 234 232 233 234 234 232 230 230 230 228 227 226 227 228 229 229 229 230 230
294 294 295 298 302 304 306 307 306 308 311 312 312 312 312 311 310 310 309 308 308 309 309 310 309 308 306 305 307 307 306 304 303 303 301 301 300 299 298 298 298 298 298 297 298 301 304 307 307 307 309 310 308 304 300 294 289 285 279 271 264 257 250 245 242 237 233 231 231 232 232 231 229 229 229 227 225 225 225 227 227 227 227 228 229
294 294 295 297 300 303 306 306 305 306 310 310 310 310 310 309 308 308 308 307 307 308 308 308 308 307 305 305 307 308 307 305 303 301 300 300 301 299 299 299 299 299 299 298 299 303 305 308 310 309 311 312 311 307 302 295 289 285 280 273 267 259 252 245 241 237 232 230 229 229 230 230 229 227 227 226 224 224 225 226 226 225 226 227 228
294 296 297 298 300 304 307 305 303 304 307 307 308 308 308 308 308 308 307 306 307 308 308 307 307 306 305 305 306 307 306 304 301 299 299 299 300 300 299 299 300 300 300 299 300 303 305 309 311 312 313 315 313 310 305 297 291 286 281 275 268 260 251 242 238 235 231 227 226 226 227 229 228 226 225 224 223 224 224 225 224 224 225 226 226
292 295 298 300 301 304 305 303 302 303 305 307 308 308 308 308 308 307 306 305 306 307 307 306 306 305 304 304 305 306 305 302 300 299 298 299 300 300 300 300 301 302 302 302 302 304 306 310 313 314 316 317 316 312 308 301 295 290 283 276 268 259 248 239 234 232 229 225 223 223 225 226 226 225 224 222 222 222 223 223 223 223 224 224 224
290 295 299 301 301 303 305 304 303 303 305 308 308 307 307 307 306 306 305 304 305 306 305 305 305 305 305 304 305 305 303 301 299 298 298 298 299 300 300 301 302 303 303 305 306 307 308 311 314 317 318 320 319 317 312 306 299 293 284 276 268 257 244 235 231 229 226 223 221 220 222 224 223 222 222 220 220 221 221 221 221 222 222 223 223
291 295 299 300 301 303 305 305 303 302 305 307 307 307 307 306 306 305 303 303 304 305 304 303 303 305 306 305 305 304 302 300 299 299 298 298 299 300 301 302 303 304 305 307 307 308 310 312 316 320 322 323 323 322 318 311 303 296 286 277 268 254 239 232 227 224 222 220 218 217 220 222 221 221 220 218 218 219 219 219 219 220 221 222 222